FW8648 Weather Reports


time (UTC)temp
C
wind
direction
speed
KPH
gust
KPH
rain 1hr
cm
rain 24hr
cm
rain mn
cm
humidity
%
barometer
mb
20260504050540 9 316 1.6 6.4 0.00 0.00 0.00 74 1017.4
20260504045529 8 248 1.6 4.8 0.00 0.00 0.00 74 1017.5
20260504045022 8 247 0.0 4.8 0.00 0.00 0.00 74 1017.5
20260504044738 7 246 0.0 4.8 0.00 0.00 0.00 75 1017.6
20260504044011 7 246 0.0 4.8 0.00 0.00 0.00 76 1017.6
20260504043727 7 233 0.0 3.2 0.00 0.00 0.00 78 1017.6
20260504042959 7 229 0.0 0.0 0.00 0.00 0.00 78 1017.5
20260504042453 7 229 0.0 0.0 0.00 0.00 0.00 78 1017.6
20260504041947 7 229 0.0 0.0 0.00 0.00 0.00 77 1017.5
20260504041441 7 229 0.0 0.0 0.00 0.00 0.00 76 1017.7
20260504040935 7 229 0.0 0.0 0.00 0.00 0.00 75 1017.5
20260504040428 7 229 0.0 0.0 0.00 0.00 0.00 75 1017.5
20260504035925 7 229 0.0 0.0 0.00 0.00 0.00 76 1017.6
20260504035420 7 229 0.0 0.0 0.00 0.00 0.00 76 1017.5
20260504034913 8 229 0.0 0.0 0.00 0.00 0.00 76 1017.5
20260504034407 8 229 0.0 0.0 0.00 0.00 0.00 75 1017.5
20260504033900 8 229 0.0 0.0 0.00 0.00 0.00 76 1017.4
20260504033358 8 229 0.0 0.0 0.00 0.00 0.00 75 1017.3
20260504032859 8 229 0.0 0.0 0.00 0.00 0.00 74 1017.4
20260504032619 8 229 0.0 0.0 0.00 0.00 0.00 74 1017.4
20260504031859 8 229 0.0 0.0 0.00 0.00 0.00 73 1017.3
20260504031621 8 229 0.0 0.0 0.00 0.00 0.00 74 1017.4
20260504030857 8 229 0.0 0.0 0.00 0.00 0.00 73 1017.3
20260504030359 8 229 0.0 0.0 0.00 0.00 0.00 73 1017.4
20260504025858 8 229 0.0 0.0 0.00 0.00 0.00 71 1017.3
20260504025355 8 229 0.0 0.0 0.00 0.00 0.00 71 1017.3
20260504024855 8 229 0.0 0.0 0.00 0.00 0.00 75 1017.4
20260504024354 8 229 0.0 0.0 0.00 0.00 0.00 74 1017.3
20260504024121 8 229 0.0 0.0 0.00 0.00 0.00 71 1017.4
20260504023612 8 229 0.0 0.0 0.00 0.00 0.00 71 1017.4
20260504022855 8 229 0.0 0.0 0.00 0.00 0.00 71 1017.4
20260504022349 8 229 0.0 0.0 0.00 0.00 0.00 72 1017.4
20260504021849 8 229 0.0 0.0 0.00 0.00 0.00 72 1017.4
20260504021352 8 229 0.0 0.0 0.00 0.00 0.00 71 1017.4
20260504020850 8 229 0.0 0.0 0.00 0.00 0.00 71 1017.5
20260504020350 8 229 0.0 0.0 0.00 0.00 0.00 70 1017.3
20260504020108 8 229 0.0 0.0 0.00 0.00 0.00 70 1017.3
20260504015350 9 229 0.0 0.0 0.00 0.00 0.00 70 1017.3
20260504014851 9 229 0.0 0.0 0.00 0.00 0.00 73 1017.2
20260504014349 9 229 0.0 0.0 0.00 0.00 0.00 71 1017.2
20260504013850 9 229 0.0 0.0 0.00 0.00 0.00 71 1017.1
20260504013606 9 229 0.0 0.0 0.00 0.00 0.00 69 1017.0
20260504013327 9 229 0.0 0.0 0.00 0.00 0.00 67 1017.1
20260504012345 10 229 0.0 0.0 0.00 0.00 0.00 67 1017.0
20260504011844 10 229 0.0 0.0 0.00 0.00 0.00 66 1017.0
20260504011343 10 229 0.0 0.0 0.00 0.00 0.00 65 1016.9
20260504010842 10 229 0.0 0.0 0.00 0.00 0.00 65 1016.9
20260504010342 10 229 0.0 0.0 0.00 0.00 0.00 65 1016.9
20260504005839 10 229 0.0 0.0 0.00 0.00 0.00 62 1016.9
20260504005339 11 229 0.0 0.0 0.00 0.00 0.00 61 1016.9
20260504004839 11 229 0.0 0.0 0.00 0.00 0.00 61 1016.9
20260504004339 11 229 0.0 0.0 0.00 0.00 0.00 61 1016.8
20260504003841 11 229 0.0 0.0 0.00 0.00 0.00 60 1016.8
20260504003339 11 229 0.0 0.0 0.00 0.00 0.00 58 1016.8
20260504003059 12 229 0.0 0.0 0.00 0.00 0.00 55 1016.7
20260504002339 12 229 0.0 0.0 0.00 0.00 0.00 54 1016.6
20260504001834 12 229 0.0 0.0 0.00 0.00 0.00 53 1016.6
20260504001328 13 229 0.0 0.0 0.00 0.00 0.00 51 1016.4
20260504000822 13 229 0.0 0.0 0.00 0.00 0.00 48 1016.4
20260504000316 13 229 0.0 0.0 0.00 0.00 0.00 45 1016.3
20260503235809 14 229 0.0 0.0 0.00 0.00 0.00 44 1016.3
20260503235304 14 229 0.0 0.0 0.00 0.00 0.00 44 1016.3
20260503234758 15 229 0.0 0.0 0.00 0.00 0.00 41 1016.3
20260503234252 15 229 0.0 0.0 0.00 0.00 0.00 41 1016.3
20260503233745 15 229 0.0 0.0 0.00 0.00 0.00 38 1016.2
20260503233503 15 229 0.0 1.6 0.00 0.00 0.00 41 1016.2
20260503232733 16 229 0.0 1.6 0.00 0.00 0.00 38 1016.2
20260503232452 16 229 0.0 3.2 0.00 0.00 0.00 36 1016.2
20260503231722 16 229 1.6 3.2 0.00 0.00 0.00 36 1016.1
20260503231215 16 229 1.6 3.2 0.00 0.00 0.00 35 1016.1
20260503230939 16 229 0.0 1.6 0.00 0.00 0.00 34 1016.1
20260503230204 16 229 0.0 1.6 0.00 0.00 0.00 37 1016.1
20260503225658 16 229 0.0 3.2 0.00 0.00 0.00 35 1016.0
20260503225152 17 229 1.6 3.2 0.00 0.00 0.00 35 1016.1
20260503224726 17 229 1.6 4.8 0.00 0.00 0.00 33 1016.1
20260503223732 17 229 1.6 4.8 0.00 0.00 0.00 32 1016.1
20260503222622 17 0 1.6 4.8 0.00 0.00 0.00 32 1016.0
20260503222115 17 0 1.6 8.0 0.00 0.00 0.00 33 1016.1
20260503221610 17 355 1.6 8.0 0.00 0.00 0.00 32 1016.1
20260503221104 17 0 1.6 6.4 0.00 0.00 0.00 31 1016.2
20260503220558 17 0 1.6 6.4 0.00 0.00 0.00 32 1016.1
20260503220052 17 274 1.6 3.2 0.00 0.00 0.00 33 1016.3
20260503220028 17 275 1.6 4.8 0.00 0.00 0.00 31 1016.1
20260503215040 17 274 1.6 6.4 0.00 0.00 0.00 32 1016.1
20260503214539 17 271 1.6 6.4 0.00 0.00 0.00 32 1016.1
20260503214039 17 315 1.6 4.8 0.00 0.00 0.00 32 1016.1
20260503213756 17 323 1.6 8.0 0.00 0.00 0.00 32 1015.9
20260503213300 17 36 3.2 8.0 0.00 0.00 0.00 31 1016.1
20260503212538 17 185 3.2 6.4 0.00 0.00 0.00 32 1016.0
20260503212036 17 212 3.2 8.0 0.00 0.00 0.00 31 1016.0
20260503211537 17 217 1.6 8.0 0.00 0.00 0.00 32 1016.1
20260503211037 17 240 1.6 4.8 0.00 0.00 0.00 35 1016.0
20260503210534 17 240 1.6 4.8 0.00 0.00 0.00 32 1016.0
20260503210035 17 209 1.6 3.2 0.00 0.00 0.00 31 1016.0
20260503205534 17 290 1.6 6.4 0.00 0.00 0.00 34 1015.9
20260503205035 17 291 1.6 6.4 0.00 0.00 0.00 32 1015.9
20260503204535 17 226 3.2 12.9 0.00 0.00 0.00 33 1016.0
20260503204035 17 167 3.2 12.9 0.00 0.00 0.00 33 1015.9
20260503203531 18 232 1.6 12.9 0.00 0.00 0.00 33 1015.7
20260503203031 18 308 1.6 8.0 0.00 0.00 0.00 33 1015.8
20260503202532 18 0 3.2 8.0 0.00 0.00 0.00 31 1016.0
20260503202248 18 226 3.2 9.7 0.00 0.00 0.00 33 1016.0
20260503201530 18 208 3.2 9.7 0.00 0.00 0.00 30 1016.0
20260503201031 18 13 3.2 8.0 0.00 0.00 0.00 30 1016.1
20260503200530 18 152 3.2 16.1 0.00 0.00 0.00 32 1016.3
20260503200255 18 314 3.2 16.1 0.00 0.00 0.00 31 1016.2
20260503195531 18 234 3.2 8.0 0.00 0.00 0.00 29 1016.1
20260503195255 18 317 1.6 6.4 0.00 0.00 0.00 35 1016.3
20260503194526 18 305 1.6 8.0 0.00 0.00 0.00 30 1016.5
20260503194026 18 302 3.2 8.0 0.00 0.00 0.00 34 1016.6
20260503193524 18 299 3.2 4.8 0.00 0.00 0.00 30 1016.7
20260503193024 18 224 1.6 4.8 0.00 0.00 0.00 31 1016.6
20260503192526 18 109 3.2 6.4 0.00 0.00 0.00 33 1016.6
20260503192254 18 108 3.2 9.7 0.00 0.00 0.00 30 1016.9
20260503191525 18 15 3.2 9.7 0.00 0.00 0.00 33 1016.8
20260503191250 18 316 1.6 9.7 0.00 0.00 0.00 33 1016.8
20260503190524 18 252 1.6 8.0 0.00 0.00 0.00 34 1016.9
20260503190249 17 264 3.2 9.7 0.00 0.00 0.00 31 1016.9
20260503185522 17 76 3.2 11.3 0.00 0.00 0.00 33 1017.0
20260503185018 17 348 3.2 11.3 0.00 0.00 0.00 32 1017.2
20260503184518 17 253 3.2 8.0 0.00 0.00 0.00 32 1017.2
20260503184018 17 252 3.2 8.0 0.00 0.00 0.00 32 1017.1
20260503183515 17 223 3.2 8.0 0.00 0.00 0.00 36 1017.1
20260503183014 17 198 3.2 14.5 0.00 0.00 0.00 35 1017.1
20260503182515 17 297 3.2 14.5 0.00 0.00 0.00 34 1017.2
20260503182009 17 242 3.2 9.7 0.00 0.00 0.00 34 1017.2
20260503181503 17 257 3.2 9.7 0.00 0.00 0.00 33 1017.2
20260503180955 17 321 1.6 8.0 0.00 0.00 0.00 35 1017.2
20260503180449 17 223 3.2 11.3 0.00 0.00 0.00 34 1017.3
20260503175944 16 145 3.2 11.3 0.00 0.00 0.00 37 1017.3
20260503175703 16 331 1.6 6.4 0.00 0.00 0.00 37 1017.3
20260503174933 16 133 3.2 11.3 0.00 0.00 0.00 37 1017.3
20260503174427 16 209 3.2 11.3 0.00 0.00 0.00 36 1017.5
20260503173920 17 116 1.6 12.9 0.00 0.00 0.00 35 1017.5
20260503173415 16 154 3.2 12.9 0.00 0.00 0.00 37 1017.6
20260503172907 16 57 1.6 6.4 0.00 0.00 0.00 40 1017.6
20260503172403 16 144 1.6 8.0 0.00 0.00 0.00 38 1017.6
20260503171857 16 17 3.2 12.9 0.00 0.00 0.00 39 1017.6
20260503171352 16 193 3.2 16.1 0.00 0.00 0.00 41 1017.7
20260503170845 16 303 3.2 16.1 0.00 0.00 0.00 36 1017.6
20260503170339 16 30 3.2 8.0 0.00 0.00 0.00 41 1017.8
20260503150656 13 163 1.6 6.4 0.00 0.00 0.00 44 1018.4
20260503150155 13 171 3.2 14.5 0.00 0.00 0.00 44 1018.5
20260503140155 12 142 3.2 16.1 0.00 0.00 0.00 52 1018.3
20260503131324 11 21 3.2 8.0 0.00 0.00 0.00 55 1018.3
20260503130554 11 330 3.2 6.4 0.00 0.00 0.00 56 1018.3
20260503110332 8 80 0.0 3.2 0.00 0.00 0.00 67 1017.2
20260503100220 9 86 1.6 4.8 0.00 0.00 0.00 64 1015.9
20260503090204 10 157 1.6 3.2 0.00 0.00 0.00 61 1015.2
20260503081202 11 5 1.6 4.8 0.00 0.00 0.00 60 1014.6
20260503080657 11 5 1.6 4.8 0.00 0.00 0.00 59 1014.6
20260503080156 11 0 1.6 4.8 0.00 0.00 0.00 59 1014.5
20260503072656 11 46 1.6 9.7 0.00 0.00 0.00 59 1014.1
20260503072156 11 121 1.6 11.3 0.00 0.00 0.00 59 1014.1
20260503071656 11 130 1.6 11.3 0.00 0.00 0.00 62 1014.2
20260503071156 11 15 1.6 8.0 0.00 0.00 0.00 60 1013.8
20260503070654 11 301 1.6 11.3 0.00 0.00 0.00 61 1013.9
20260503070154 11 307 3.2 12.9 0.00 0.00 0.00 60 1013.7
20260503055042 10 259 1.6 4.8 0.00 0.00 0.00 70 1013.5
20260503054537 10 5 1.6 8.0 0.00 0.00 0.00 72 1013.6
20260503054027 9 351 1.6 8.0 0.00 0.00 0.00 74 1013.5
20260503053523 8 290 0.0 4.8 0.00 0.00 0.00 77 1013.4
20260503053018 8 114 0.0 1.6 0.00 0.00 0.00 81 1013.6
20260503052955 8 114 0.0 0.0 0.00 0.00 0.00 85 1013.5
20260503052005 8 114 0.0 0.0 0.00 0.00 0.00 85 1013.6